TimeAST,TemperatureF,Dew PointF,Humidity,Sea Level PressureIn,VisibilityMPH,Wind Direction,Wind SpeedMPH,Gust SpeedMPH,PrecipitationIn,Events,Conditions,WindDirDegrees,DateUTC
1:00 AM,77.0,69.8,78,30.01,6.2,NE,11.5,-,N/A,,Mostly Cloudy,40,2013-03-06 05:00:00
2:00 AM,76,70,76,29.99,17,NE,10.4,,,,Haze,40,2013-03-06 06:00:00
2:00 AM,77.0,69.8,78,29.98,6.2,NE,10.4,-,N/A,,Mostly Cloudy,40,2013-03-06 06:00:00
3:00 AM,75.2,69.8,83,29.95,6.2,NE,9.2,-,N/A,,Scattered Clouds,50,2013-03-06 07:00:00
4:00 AM,75.2,69.8,83,29.98,6.2,ENE,6.9,-,N/A,,Mostly Cloudy,60,2013-03-06 08:00:00
5:00 AM,75,69,78,29.98,17,ENE,6.9,,,,Haze,60,2013-03-06 09:00:00
5:00 AM,75.2,69.8,83,29.98,6.2,ENE,6.9,-,N/A,,Mostly Cloudy,60,2013-03-06 09:00:00
6:00 AM,75.2,69.8,83,29.98,6.2,ENE,6.9,-,N/A,,Mostly Cloudy,60,2013-03-06 10:00:00
7:00 AM,77.0,69.8,78,30.01,6.2,ENE,8.1,-,N/A,,Mostly Cloudy,70,2013-03-06 11:00:00
8:00 AM,80,70,64,30.03,19,East,6.9,,,,Partly Cloudy,80,2013-03-06 12:00:00
8:00 AM,78.8,69.8,74,30.01,6.2,East,6.9,-,N/A,,Scattered Clouds,80,2013-03-06 12:00:00
9:00 AM,78.8,69.8,74,30.04,6.2,East,6.9,-,N/A,,Mostly Cloudy,80,2013-03-06 13:00:00
10:00 AM,80.6,69.8,70,30.04,6.2,East,9.2,-,N/A,,Scattered Clouds,90,2013-03-06 14:00:00
11:00 AM,82.4,69.8,66,30.04,6.2,East,10.4,-,N/A,,Scattered Clouds,90,2013-03-06 15:00:00
12:00 PM,80.6,68.0,65,30.04,6.2,East,5.8,-,N/A,Rain,Light Rain Showers,100,2013-03-06 16:00:00
1:00 PM,80.6,69.8,70,30.01,6.2,ESE,5.8,-,N/A,,Scattered Clouds,110,2013-03-06 17:00:00
2:00 PM,80,69,60,30.00,19,East,8.1,,,,Partly Cloudy,90,2013-03-06 18:00:00
2:00 PM,80.6,68.0,65,29.98,6.2,East,8.1,-,N/A,,Scattered Clouds,90,2013-03-06 18:00:00
3:00 PM,80.6,68.0,65,29.98,6.2,South,6.9,-,N/A,,Mostly Cloudy,170,2013-03-06 19:00:00
4:00 PM,80.6,68.0,65,29.98,6.2,Variable,2.3,-,N/A,,Mostly Cloudy,0,2013-03-06 20:00:00
5:00 PM,78.8,69.8,74,29.98,6.2,Variable,2.3,-,N/A,,Scattered Clouds,0,2013-03-06 21:00:00
6:00 PM,78.8,69.8,74,29.98,6.2,Variable,2.3,-,N/A,,Scattered Clouds,0,2013-03-06 22:00:00
7:00 PM,77.0,69.8,78,30.01,6.2,Variable,1.2,-,N/A,,Scattered Clouds,0,2013-03-06 23:00:00
8:00 PM,76,69,73,30.03,19,,1.2,,,,Mostly Cloudy,,2013-03-07 00:00:00
8:00 PM,77.0,69.8,78,30.01,6.2,Variable,1.2,-,N/A,,Partly Cloudy,0,2013-03-07 00:00:00
9:00 PM,75.2,69.8,83,30.04,6.2,ENE,3.5,-,N/A,,Partly Cloudy,75,2013-03-07 01:00:00
10:00 PM,75.2,71.6,89,30.04,6.2,ENE,5.8,-,N/A,,Partly Cloudy,60,2013-03-07 02:00:00
11:00 PM,75,72,86,30.04,19,ENE,4.6,,,,Scattered Clouds,60,2013-03-07 03:00:00
11:00 PM,75.2,71.6,89,30.04,6.2,ENE,4.6,-,N/A,,Partly Cloudy,60,2013-03-07 03:00:00